Dewpoint
55 56 57 57 59 61 61 60 59 59 58 58 58 58 58 59 59 59 58 57 57 55 52 52 53 53 41 44 43 42 54 52 34 31 28 28 28 28 25 26 26 26 26 27 27 27 26
53 54 55 55 56 57 60 61 60 59 58 57 57 57 57 58 59 59 58 57 57 54 52 51 52 51 37 44 46 41 36 36 34 36 30 28 28 28 26 25 26 26 25 26 26 26 26
50 51 53 54 55 56 57 57 59 59 58 58 57 57 57 57 57 58 58 57 57 54 51 50 51 43 38 47 48 43 42 41 39 38 34 30 29 27 27 25 27 27 25 26 25 25 24
49 50 50 52 53 53 54 57 57 59 59 58 57 57 56 57 57 57 57 56 56 54 51 51 50 41 47 46 41 39 37 38 37 37 36 35 30 28 26 27 28 25 25 21 22 25 26
48 48 49 50 51 52 52 54 56 57 59 58 57 57 56 56 56 56 56 55 55 53 51 50 44 41 46 49 42 42 38 38 35 35 36 31 30 29 30 26 25 26 21 21 22 26 26
46 47 48 49 50 50 51 53 54 56 56 58 58 57 56 55 55 55 55 55 54 51 50 46 41 45 45 44 42 39 37 36 31 33 29 29 30 28 28 26 23 23 23 25 22 25 26
46 45 46 48 49 49 50 52 53 55 56 56 58 57 56 55 55 55 52 52 50 47 46 45 43 45 41 41 42 35 33 32 32 32 29 30 25 25 26 27 25 23 23 22 24 26 26
46 46 45 46 47 48 48 50 51 52 55 55 57 57 56 55 55 54 54 50 49 47 43 47 47 44 43 44 42 41 42 30 30 28 30 29 25 26 28 27 26 25 25 25 26 27 28
46 46 46 45 46 47 47 48 50 50 53 55 55 57 56 55 55 54 52 50 45 49 46 45 46 47 46 46 43 41 41 40 30 27 28 26 27 29 28 27 26 26 26 26 25 27 26
46 45 46 45 45 46 47 48 48 50 50 53 54 55 55 55 52 54 52 52 48 53 40 38 43 43 45 44 41 43 41 37 36 30 27 26 27 28 28 27 27 26 28 27 27 26 24
45 46 46 46 45 45 46 47 48 48 49 50 53 55 55 53 53 51 52 51 54 49 27 32 40 44 43 41 40 41 42 40 34 33 28 28 27 26 26 27 29 27 29 28 27 26 23
44 45 45 45 45 45 45 46 46 48 48 49 51 53 54 53 54 54 53 54 50 33 25 31 41 41 40 41 40 37 41 41 40 35 32 31 27 27 27 27 29 28 24 21 19 20 18
43 44 44 45 45 44 45 46 46 47 47 48 50 51 53 54 50 54 55 51 35 28 34 34 38 40 40 40 39 33 38 38 37 35 35 34 31 23 24 22 25 25 22 19 17 15 18
44 44 43 44 44 44 44 45 45 46 47 48 48 50 51 52 54 55 52 42 29 34 31 36 38 39 37 39 39 34 37 36 36 32 35 34 33 35 28 28 26 24 23 24 21 16 17
45 44 44 43 44 44 44 44 45 45 46 47 48 49 49 50 55 55 47 33 32 34 32 34 35 36 36 36 35 31 37 37 36 30 31 34 33 19 21 30 30 28 23 25 22 24 20
46 46 45 44 43 43 43 44 45 45 45 46 44 44 45 50 54 52 42 34 35 35 33 33 31 30 30 29 30 33 26 28 30 35 30 26 21 18 17 20 22 30 30 25 29 25 20
48 47 46 45 43 42 43 44 44 45 46 46 43 37 43 50 53 47 36 36 37 35 34 31 31 32 28 27 31 32 30 27 21 21 28 26 28 21 18 19 21 25 27 28 31 30 26
46 46 47 46 44 43 43 44 44 45 45 44 39 30 45 49 41 42 38 37 39 35 35 33 34 31 29 29 30 31 32 31 23 23 22 28 30 27 18 21 21 19 26 28 29 26 27
46 46 47 46 45 43 43 43 44 45 45 42 35 34 45 48 34 35 39 39 38 37 35 36 34 32 37 32 33 32 34 27 23 24 24 25 30 25 19 18 19 17 19 23 25 28 26
48 48 46 46 46 43 43 43 44 45 46 42 35 30 35 40 43 37 36 36 37 38 36 35 34 35 36 35 36 34 33 28 28 25 33 31 28 27 23 19 20 18 18 20 24 26 25
50 48 46 46 46 43 43 44 44 45 45 42 36 32 36 30 33 38 37 36 36 36 37 37 36 34 34 35 35 35 35 28 27 32 26 30 27 27 20 17 17 18 17 18 17 19 22
46 46 46 46 45 44 44 44 44 45 46 40 32 32 34 36 35 38 37 35 36 36 37 36 35 36 35 34 35 34 31 28 25 23 22 25 22 22 20 18 18 16 17 18 17 17 17
45 46 45 46 45 44 44 44 44 44 44 38 39 39 36 36 35 35 35 36 36 36 37 37 36 37 36 35 33 35 33 30 29 24 24 27 25 23 24 22 20 23 20 18 22 18 17
46 45 45 45 43 44 44 44 44 45 44 39 37 40 34 32 34 35 37 37 36 36 35 37 37 35 35 35 35 34 33 34 31 29 30 27 26 26 19 20 17 14 10 17 20 19 19
45 44 44 43 44 44 44 44 44 45 45 41 43 39 36 32 35 36 37 36 36 36 36 36 36 35 37 34 30 27 25 28 28 31 32 30 26 21 17 15 14 7 6 10 12 15 16
43 45 44 44 44 44 44 44 45 45 46 43 43 43 39 35 33 37 37 37 34 31 30 32 36 38 34 30 27 21 19 22 21 23 28 30 26 22 18 14 13 7 14 13 12 4 19
43 44 44 45 44 44 45 45 45 46 46 44 42 43 38 34 38 38 35 35 34 30 28 31 31 31 33 27 23 19 18 17 17 16 18 21 20 19 16 13 9 12 22 21 6 6 26
42 43 43 43 44 45 45 45 45 46 45 44 41 44 38 33 34 39 37 34 32 30 28 31 30 29 27 23 22 21 17 13 13 14 16 16 18 18 16 13 8 18 24 13 19 24 23
41 41 42 42 43 41 42 45 45 46 46 44 38 43 41 34 32 37 37 37 35 33 32 32 30 29 29 23 23 23 20 21 15 12 17 17 19 17 19 17 19 26 21 27 25 21 23
Lifted_Index
10 9 7 6 4 3 2 2 3 4 5 6 6 6 6 6 6 5 5 5 5 5 4 4 4 4 4 4 5 5 5 6 7 7 7 7 7 7 6 6 6 6 6 6 6 6 6
11 10 9 7 5 4 3 2 2 3 4 5 5 6 6 6 6 5 5 5 5 5 4 4 4 4 4 4 4 5 5 6 6 6 6 7 7 7 6 6 6 6 6 6 6 6 6
13 12 11 10 8 6 4 3 3 2 3 3 4 5 5 6 6 6 5 5 5 5 4 4 4 4 4 4 4 5 5 6 6 6 6 6 7 7 7 6 6 6 6 5 5 6 6
13 13 12 11 10 8 6 5 3 3 2 2 3 4 4 5 6 6 5 5 5 5 5 5 5 5 4 4 4 4 5 5 6 6 6 6 7 7 7 6 6 5 5 4 5 5 6
13 13 12 12 11 11 9 7 5 4 3 2 2 3 3 4 5 6 6 5 5 5 5 5 5 5 5 4 4 4 4 5 5 5 6 6 6 6 6 5 5 4 4 4 5 6 6
13 13 13 12 12 11 11 9 7 5 4 3 2 2 3 4 4 5 6 6 5 6 6 6 6 6 5 5 4 4 4 4 4 4 4 5 5 5 4 4 4 4 4 4 5 5 6
14 13 13 12 12 12 11 10 9 7 5 4 3 3 3 3 4 5 6 6 6 6 6 6 6 6 6 5 5 5 5 4 4 3 3 4 4 4 4 4 4 4 4 4 4 5 5
14 14 14 13 13 12 12 11 10 9 7 5 4 3 3 3 4 6 7 7 6 6 7 6 6 6 6 6 5 5 5 4 3 2 2 3 3 3 3 4 4 4 4 3 4 4 5
15 14 14 14 14 13 12 12 11 10 9 7 5 4 4 4 4 6 7 7 6 6 6 7 7 7 6 6 6 5 5 4 3 2 2 3 3 3 3 3 3 3 3 3 3 3 4
15 15 15 15 15 14 13 13 12 11 10 8 7 5 4 4 4 5 6 6 6 5 6 7 8 8 7 7 7 6 5 4 3 3 3 3 3 3 2 2 2 2 2 2 2 2 2
13 14 14 14 15 14 14 13 13 12 11 10 8 6 5 4 4 5 6 6 6 5 4 6 8 8 8 7 7 6 5 4 4 3 3 3 3 3 2 2 2 2 2 2 2 2 2
11 12 13 14 14 14 14 14 13 12 12 11 9 7 6 4 4 4 5 6 6 5 4 6 8 8 8 7 7 7 6 5 4 4 3 3 4 3 3 2 2 3 2 2 2 2 2
7 8 10 12 13 13 14 14 13 13 12 11 10 8 7 5 4 4 5 5 5 4 5 6 7 7 7 6 6 5 5 4 4 3 3 3 3 3 3 3 3 2 2 1 1 1 1
5 6 7 9 10 12 13 13 13 13 12 11 10 9 8 6 4 4 4 3 3 4 5 6 7 6 6 5 4 4 4 3 3 2 2 2 2 3 3 2 2 2 1 1 1 1 1
4 5 5 6 8 9 11 12 12 12 12 11 10 10 9 7 5 4 3 2 2 3 5 5 5 5 5 4 4 3 3 2 2 2 2 2 2 3 3 3 2 2 2 1 1 1 1
4 4 5 5 6 7 8 10 11 11 11 10 10 10 9 7 5 3 2 1 2 3 4 4 4 4 4 4 3 3 3 2 2 2 3 3 3 3 4 3 3 3 2 2 2 1 1
5 5 5 5 6 6 6 7 8 9 10 10 10 10 10 7 5 2 1 1 2 4 4 4 3 3 3 3 3 3 3 4 3 3 3 3 3 3 4 4 4 4 3 3 2 2 1
6 6 6 6 6 6 5 5 5 7 8 9 10 10 9 6 3 2 1 1 2 3 4 4 3 3 3 3 3 3 4 4 5 4 4 4 4 4 4 5 6 5 4 4 3 3 2
6 6 6 6 6 6 5 4 3 4 5 7 9 10 8 5 2 1 1 2 2 3 3 3 3 3 3 3 3 3 4 5 5 5 5 5 4 3 4 5 6 5 5 5 4 3 3
4 4 5 6 6 5 4 3 2 1 2 4 7 8 8 5 2 1 1 2 2 3 3 3 3 3 3 2 2 2 3 5 6 6 5 5 4 3 3 4 4 4 4 4 4 4 4
3 4 5 5 5 5 3 2 0 -0 0 1 4 6 6 5 3 1 1 1 2 3 3 3 3 3 2 2 1 1 3 4 5 5 5 5 3 3 3 3 3 4 4 4 5 4 4
4 4 4 5 5 4 2 0 -1 -1 -1 0 2 4 5 5 3 2 1 1 2 2 3 3 3 3 2 2 1 2 2 4 4 4 4 4 3 2 3 3 3 4 4 5 5 5 5
4 4 4 4 4 3 1 -0 -1 -1 -1 0 1 2 3 4 3 2 1 2 2 2 3 3 3 3 3 3 3 3 4 4 4 4 4 3 3 2 3 3 3 4 5 6 5 5 5
4 3 3 3 3 2 0 -1 -1 -2 -1 0 1 2 2 2 3 3 2 2 2 2 3 3 4 4 4 4 4 4 4 5 5 5 5 4 3 3 3 3 3 5 6 6 6 6 6
4 3 3 2 2 1 -0 -1 -1 -2 -1 0 1 1 2 2 2 2 2 2 2 2 2 3 4 5 5 4 3 3 3 4 4 5 6 5 5 4 3 3 3 5 7 8 7 6 7
5 4 3 2 1 0 -0 -1 -1 -2 -1 0 2 2 2 1 2 2 2 2 2 2 2 3 5 6 6 4 3 2 3 3 3 4 5 6 6 5 3 3 3 6 8 9 8 7 7
5 5 3 3 2 1 -0 -1 -1 -1 -1 1 2 3 2 1 2 2 2 2 2 2 2 3 5 6 6 4 3 3 3 3 3 4 4 5 5 4 4 3 4 7 9 9 7 7 8
6 5 5 4 3 2 1 0 -0 -0 0 1 2 3 3 2 2 3 3 3 3 3 3 4 5 7 6 5 4 4 4 4 4 4 4 4 4 4 4 4 6 9 10 8 8 9 10
6 5 5 5 4 3 2 1 0 0 0 1 2 3 3 3 3 4 5 4 4 3 4 5 6 7 7 6 6 5 5 4 4 4 5 5 4 4 4 5 7 9 9 9 9 10 10